Terminal Aerodrome Forecast
Issued by NWS

Home | Current Version | Previous Version | Graphics & Text | Print | Product List | Glossary On
Versions: 1 2 3 4 5 6 7 8 9 10 11 12 13 14 15 16 17
000
FTUS45 KGGW 161510 AAC
TAFSDY
TAF AMD
KSDY 161510Z 1615/1712 VRB05KT P6SM VCFG FEW002
      TEMPO 1615/1616 2SM BR BKN001
     FM161600 VRB05KT P6SM FEW210=

USA.gov is the U.S. government's official web portal to all federal, state and local government web resources and services.